Volver al catálogo

FENGYUN 1C DEB

ActivoSSO
NORAD 31550·DEBRIS·🇨🇳 China

Lanzado May 10, 1999 desde Taiyuan Satellite Launch Center

Loading…

Próximos Pases (próximas 24 horas)

TLE

ActualizadoSource: Space-Track

Época: Sep 12, 2026, 22:48 UTC

1 31550U 99025BYR 26255.95032257  .00000784  00000-0  20839-3 0  9996
2 31550  98.3217 253.0972 0188695 165.1818 195.5010 14.41310811694038

Sigue FENGYUN 1C DEB en tiempo real con AllMySat

Download on the App Store